Retour au catalogue

DMSP 5D-2 F13 DEB

ActifSSO
NORAD 40401·DEBRIS·🇺🇸 United States

Lancé Mar 24, 1995 depuis Vandenberg Space Force Base

Loading…

Prochains Passages (prochaines 24 heures)

TLE

VieillissantSource: Space-Track

Époque: Sep 9, 2026, 18:07 UTC

1 40401U 95015N   26252.75506229  .00001903  00000-0  88557-3 0  9991
2 40401  98.9771 234.5617 0047513 242.1124 117.5236 14.21193043592689

Suivez DMSP 5D-2 F13 DEB en temps réel avec AllMySat

Download on the App Store